Location: St. Louis
(38.6270°N, 90.1994°W)
Time: 09:53:06
(UTC-06:00)

Vanguard 2 Rocket - Pass Details

Date: 02 December 2021
Orbit: 553 x 3325 km, 32.9° (Epoch: 23 January)

Event Time Altitude Azimuth Distance (km) Brightness Sun altitude
Rises 19:54:20 0° 259° (WSW) 3,739 11.0 -37.4°
Reaches altitude 10° 19:56:30 10° 255° (WSW) 3,031 10.2 -37.8°
Enters shadow 20:03:11 62° 202° (SSW) 1,763 8.2 -39.1°
Maximum altitude 20:04:07 64° 176° (S) 1,801 - -39.3°
Drops below altitude 10° 20:17:54 10° 99° (E) 5,259 - -42.0°
Sets 20:22:57 0° 98° (E) 6,647 - -43.0°
